CAPE
2 3 19 9 6 4 6 6 3 3 3 0 0 0 0 0 0 0 6 1 0 0 0 0 0 0 0 0 0 0 0 0 0 0 0 0 0 0 0 0 0 0 0 2 0 0 274
9 1 5 4 12 5 6 8 5 1 2 3 1 0 0 0 0 0 0 0 3 0 0 0 0 0 0 0 0 0 0 0 0 0 0 0 0 0 0 0 0 9 0 0 1 27 12
10 12 7 6 0 1 11 2 2 2 1 1 3 2 0 0 0 0 0 0 0 0 0 0 0 0 0 0 0 0 0 0 0 0 0 0 0 0 0 0 0 0 0 13 0 10 34
5 6 6 8 5 1 1 1 4 2 2 2 1 2 2 0 0 0 0 0 0 0 0 0 0 0 0 0 0 0 0 0 0 0 0 0 0 0 0 0 0 0 0 1 0 47 103
19 12 4 5 8 4 2 1 0 6 2 2 2 3 2 2 0 0 0 0 0 0 0 0 0 0 0 0 0 0 0 0 0 0 0 0 0 0 0 0 0 0 0 12 9 15 90
5 6 26 10 4 3 2 0 0 0 2 2 3 1 2 1 0 0 0 0 0 0 0 0 0 0 0 0 0 0 0 0 0 0 0 0 0 0 0 0 0 4 4 5 1 16 22
11 12 5 5 26 11 6 2 0 0 1 4 2 1 2 2 0 0 0 0 0 0 0 0 0 0 0 0 0 0 0 0 0 0 0 0 0 0 14 11 0 0 2 13 28 32 66
14 14 11 7 0 6 28 13 0 0 2 0 6 2 3 3 2 0 6 0 0 0 0 0 0 0 0 0 0 0 0 0 0 0 0 0 0 0 0 0 0 0 19 17 37 6 2
14 19 20 14 13 9 0 10 15 0 0 0 0 8 3 4 3 2 1 0 0 0 0 0 0 0 0 0 0 0 0 0 0 0 0 0 2 0 0 0 0 0 26 16 22 2 0
7 7 14 14 13 15 24 10 6 0 0 0 1 1 1 3 0 0 0 0 0 0 0 0 0 0 0 0 0 0 0 0 0 0 0 0 0 0 0 0 0 3 0 10 5 12 24
8 9 12 19 22 26 21 28 16 13 11 0 0 1 1 4 1 1 15 0 0 2 0 0 0 0 0 0 0 0 0 0 0 0 0 0 0 0 0 0 0 6 0 8 13 41 19
5 6 3 6 18 25 19 14 27 17 11 7 0 0 6 7 0 0 0 32 80 0 0 0 0 0 0 0 0 0 0 0 0 0 0 0 0 0 0 1 0 0 0 2 10 20 32
4 4 5 6 5 15 26 17 23 35 23 13 3 4 3 38 1 0 0 64 0 0 0 0 0 0 0 0 0 0 0 0 0 0 0 0 0 0 0 0 0 0 1 12 6 16 22
4 4 5 10 11 22 25 34 22 38 42 21 14 5 2 16 24 0 1 28 0 0 0 0 0 0 0 0 0 0 0 0 0 0 0 0 0 0 0 0 24 0 9 33 11 47 91
23 22 14 10 4 10 27 25 31 30 40 27 23 5 1 14 13 17 3 15 0 0 0 0 0 0 0 0 0 0 0 0 0 0 0 0 0 0 0 0 0 16 3 17 20 90 22
23 26 32 18 14 10 20 44 41 36 29 23 33 15 11 0 42 31 3 4 0 0 0 0 0 0 0 0 0 0 0 0 0 0 0 0 0 0 0 0 0 3 12 11 19 18 17
33 42 51 48 39 33 29 29 38 38 21 21 12 15 1 25 63 73 11 0 0 0 0 0 0 0 6 24 0 0 0 0 0 0 0 0 0 3 5 0 4 0 7 26 42 38 59
44 27 37 29 22 14 28 34 30 32 34 26 9 8 16 19 14 9 9 0 0 0 0 0 2 34 0 12 4 0 0 0 0 0 0 0 0 15 3 0 0 6 7 36 36 72 19
14 9 2 1 1 18 37 32 31 28 37 13 2 21 33 49 1 6 0 0 0 0 0 0 16 33 45 39 35 0 0 0 0 0 0 0 0 0 15 14 10 3 25 62 65 70 24
26 29 30 29 30 15 6 10 36 27 39 9 2 2 29 38 3 4 0 0 0 0 0 0 9 42 31 96 40 32 2 0 0 0 0 1 0 0 0 0 4 0 4 23 42 38 10
23 14 9 8 11 10 6 20 30 21 37 5 2 1 0 7 6 0 1 0 0 0 0 0 0 0 36 38 40 40 37 0 0 0 0 0 0 0 0 2 14 6 7 11 27 31 26
5 1 8 8 11 12 15 5 20 36 50 2 0 10 29 3 17 7 10 3 0 0 5 7 0 0 17 44 50 91 71 7 0 0 0 1 0 0 1 0 4 0 0 2 5 10 19
15 5 3 8 12 10 13 13 18 36 42 1 4 0 20 0 5 12 7 0 0 0 0 1 1 4 0 28 71 90 9 2 0 1 12 20 10 10 7 6 3 0 0 1 0 0 0
10 3 1 4 10 14 19 7 14 41 45 0 1 1 21 22 21 0 0 2 0 0 0 4 15 12 9 88 39 8 6 0 0 0 0 77 49 36 14 0 1 0 0 0 0 0 0
7 3 1 5 0 18 23 19 8 9 34 0 0 6 34 19 3 8 9 16 8 14 29 27 27 3 39 85 37 2 0 0 0 0 0 24 103 43 8 1 0 0 0 0 0 0 0
1 2 12 30 14 74 18 23 7 19 29 2 4 7 49 22 13 13 10 16 14 34 37 12 75 146 109 32 38 24 0 0 0 0 0 3 37 70 40 1 0 0 0 0 0 0 0
0 0 18 49 25 14 17 28 20 28 38 1 10 2 67 29 14 10 5 8 6 44 52 46 74 74 77 7 39 23 1 3 0 0 6 5 27 22 60 22 0 0 0 10 9 0 60
0 1 0 0 24 13 23 22 19 43 47 0 1 6 54 62 27 0 2 15 8 35 16 61 80 100 56 37 12 5 34 16 17 3 40 11 1 3 58 38 3 2 9 0 14 3 43
5 0 4 6 8 19 27 17 20 34 17 7 5 14 49 33 6 1 28 62 50 67 46 146 50 44 6 1 0 18 65 74 43 48 8 33 21 42 47 44 57 20 21 23 36 59 103
CIN
-1 -1 0 -3 -3 -3 -1 0 -1 -2 -1 -1 0 0 0 0 0 0 -3 -5 -4 0 0 0 0 0 0 0 0 0 0 0 0 0 0 0 0 0 0 0 0 0 -2 -2 -1 0 -6
-1 -2 -4 -2 0 -3 -3 -1 -1 -1 -1 -1 -2 -1 0 0 0 0 0 -2 -11 0 0 0 0 0 0 0 0 0 0 0 0 0 0 0 0 0 0 0 0 -5 0 0 -1 -10 -11
0 0 -1 -8 -12 -6 0 -7 -3 -1 0 -1 0 0 -1 0 0 0 0 0 -2 0 0 0 0 0 0 0 0 0 0 0 0 0 0 0 0 0 0 0 0 0 0 -6 0 -34 -8
0 -1 0 -1 -5 -7 -12 -2 -5 -5 -3 0 -1 -1 0 0 0 0 0 0 0 0 0 0 0 0 0 0 0 0 0 0 0 0 0 0 0 0 0 0 0 0 -1 -12 0 -3 -2
0 0 0 -2 -2 -5 -9 -7 0 -2 -7 -3 -2 -1 -1 -1 0 0 0 0 0 0 0 0 0 0 0 0 0 0 0 0 0 0 0 0 0 0 0 0 -1 -1 -1 -10 -55 -4 -8
-1 -1 0 -1 -3 -6 -6 0 0 -13 -2 -9 -5 -2 -1 -1 0 0 0 0 0 0 0 0 0 0 0 0 0 0 0 0 0 0 0 0 0 0 0 0 -2 -10 -12 -7 -4 -54 -9
0 0 -1 -3 0 -1 0 -5 0 0 -21 -2 -9 -6 -2 -3 -3 0 0 0 0 0 0 0 0 0 0 0 0 0 0 0 0 0 0 0 0 0 -4 -3 0 0 -8 -7 -10 -9 -10
0 0 -1 -2 0 -4 0 0 -1 0 -2 0 -2 -9 -5 -5 -2 0 0 0 0 0 0 0 0 0 0 0 0 0 0 0 0 0 0 0 0 0 0 0 0 0 -6 -6 -18 -19 -18
0 0 0 -1 -4 -3 0 0 -1 -2 0 0 0 -2 -10 -8 -6 -3 -1 0 0 0 0 0 0 0 0 0 0 0 0 0 0 0 0 0 -2 0 0 0 0 0 -4 -14 -9 -10 0
0 0 0 -1 -2 -3 -2 -2 0 0 0 0 -28 -2 -6 -13 -1 0 0 0 0 -1 0 0 0 0 0 0 0 0 0 0 0 0 0 0 -1 0 0 0 0 -6 -2 -4 -4 -6 -7
0 0 0 0 0 0 -1 -2 -6 0 -1 -1 0 -17 -2 -24 -7 -3 -2 0 0 -2 0 0 0 0 0 0 0 0 0 0 0 0 0 0 0 0 0 0 0 -4 -1 -2 -4 -5 -15
0 -1 0 0 0 0 0 0 -2 -8 -6 -13 0 0 -5 -4 0 0 0 -1 -1 0 0 0 0 0 0 0 0 0 0 0 0 0 0 0 0 0 0 -1 0 0 0 -1 -4 -6 -8
-2 -5 -9 -5 -1 0 0 0 0 -3 -14 -21 -16 -18 -4 -1 -2 0 0 -1 0 0 0 0 0 0 0 0 0 0 0 0 0 0 0 0 0 0 0 0 0 0 -2 -4 -12 -4 -6
-1 -1 -1 -1 0 0 0 0 0 0 -6 -20 -22 -8 -4 -1 -2 0 0 -4 0 0 0 0 0 0 0 0 0 0 0 0 0 0 0 0 0 0 0 0 -4 0 -5 -12 -11 -5 -4
0 0 0 0 0 0 0 0 0 0 -1 -12 -13 -2 0 -2 -1 -2 0 -4 0 0 0 0 0 0 0 0 0 0 0 0 0 0 0 0 0 0 0 0 0 -6 -5 -4 -18 -12 -35
0 0 0 0 0 -1 0 0 0 0 -1 -13 -1 -2 -2 -16 -1 -1 -15 -3 0 0 0 0 0 0 0 0 0 0 0 0 0 0 0 0 0 0 0 0 0 -2 -8 -5 -9 -5 -4
0 0 0 0 0 0 0 0 0 0 -2 -8 0 0 -3 -4 -1 0 -10 0 0 0 0 0 0 0 -4 -5 0 0 0 0 0 0 0 0 0 -5 -4 0 -2 0 -6 -4 -4 -7 -10
0 0 -1 0 0 -4 -3 0 0 -2 0 0 0 -1 -2 -3 0 -11 0 0 0 0 0 -1 -8 -3 0 -2 -4 0 0 0 0 0 0 0 0 -4 -5 0 0 -16 -4 -5 -4 -4 -7
0 -2 0 -2 -18 -1 0 -1 -3 -4 0 0 0 0 -3 -1 -1 -1 -1 0 0 0 0 -1 -9 -8 -5 -5 -3 -1 0 0 0 0 0 0 0 0 -5 -5 -9 -4 -4 -5 -5 -3 -6
0 0 0 0 -1 -1 -3 -1 0 0 0 0 0 0 -1 0 -2 -2 0 0 0 0 0 0 -13 -8 -9 -1 -4 -4 -4 0 0 0 0 -40 0 0 0 -1 -3 0 -2 -6 -4 -4 -4
0 0 0 0 -1 -2 -6 -2 -1 -1 0 0 0 -1 0 0 0 0 -5 0 0 0 -1 0 0 0 -7 -3 -2 -2 -15 0 0 0 0 0 0 0 0 -4 -6 -5 -5 -6 -8 -8 -7
0 -3 0 0 0 -1 -1 -2 -1 0 0 0 0 -2 -1 -3 0 -3 -8 -4 0 0 -6 -4 0 -3 -23 -6 -4 -4 -5 -30 0 -1 0 -28 -2 0 -4 -4 -8 -1 -7 -6 -7 -6 -5
0 0 0 0 0 -1 -2 -7 0 0 0 0 0 0 -2 0 -1 -2 -2 0 0 0 -3 -4 -2 -33 0 -6 -10 -25 -41 -125 0 -16 -27 -9 -10 -5 -3 -4 -5 -1 0 -3 0 0 0
0 -1 -1 0 0 0 -2 -2 -2 -1 0 0 0 -2 -1 -2 -2 0 0 -7 0 0 0 -6 -6 -3 -114 -14 -22 -39 -62 0 0 0 0 -2 -3 -7 -1 -3 -2 0 0 0 0 0 -1
-2 -3 -1 0 0 -9 0 0 0 0 -1 0 0 -2 -3 -1 -4 -4 -5 -8 -5 -5 -6 -9 -8 -3 -3 -22 -9 -6 -1 0 0 0 0 -20 -2 -12 -5 -1 0 0 0 0 0 0 0
-2 -5 -13 -1 -1 -3 -5 0 0 -1 0 0 0 -1 -4 0 -5 -4 -7 -8 -4 -3 -5 -31 -2 -8 -1 -24 -41 -9 0 0 0 0 0 -6 -10 -8 -15 -4 0 0 0 0 0 0 0
0 0 -5 -1 -1 0 -1 0 0 -1 0 -1 -3 -4 -4 -1 -3 -9 -15 -5 -4 -5 -6 -44 -16 -2 -15 -41 -81 -59 -11 -1 0 0 -2 -11 -4 -17 -8 -6 0 0 0 -10 -7 0 -3
0 -1 -2 0 -4 0 0 0 0 0 0 -1 -3 -2 0 0 -3 0 -41 -7 -3 -3 -7 -12 -3 0 -2 -2 -68 -46 -4 -5 -3 -4 -13 -6 -17 -56 -21 -12 -13 -2 -60 -16 -24 -6 -6
-2 -1 -3 -2 -1 0 0 0 0 0 -4 -1 0 0 -2 0 0 -2 -6 -5 -31 -2 -3 -5 -23 -3 -2 -3 0 -41 -4 -9 -3 -3 -3 -6 -3 -6 -10 -10 -31 -75 -41 -44 -11 -2 -9
Wind_Speed
38 36 35 35 34 33 33 32 33 33 33 32 32 32 34 33 34 34 34 33 33 33 33 34 35 35 30 20 16 14 11 7 7 7 7 8 8 8 9 10 10 7 8 11 20 16 19
36 38 38 37 35 36 34 33 33 33 34 33 32 31 32 33 33 33 34 35 34 34 34 33 34 33 24 16 18 14 8 6 6 6 6 6 9 9 8 7 7 16 6 15 6 12 8
37 38 38 39 39 37 37 35 34 34 33 34 33 33 32 32 33 33 33 33 35 36 35 34 31 25 21 7 20 13 6 5 5 5 6 6 8 7 11 6 6 7 11 11 11 16 9
37 37 37 38 38 40 38 36 36 34 34 33 34 33 33 33 34 34 34 34 34 33 34 32 25 20 22 18 12 9 4 4 4 5 5 7 7 6 6 8 5 8 14 15 22 8 7
39 39 38 37 36 37 38 37 36 36 34 34 34 34 34 34 34 35 35 34 34 33 28 24 20 18 26 14 10 2 1 3 3 4 4 8 6 4 6 4 4 6 11 5 9 9 12
42 42 40 39 38 37 36 37 38 37 37 35 32 34 35 34 34 34 35 35 29 28 23 20 22 21 19 17 9 1 5 2 2 2 3 4 5 4 4 3 3 5 5 5 8 19 9
41 41 42 42 40 38 37 36 37 38 36 35 33 31 33 33 33 33 32 30 25 22 18 21 19 17 20 13 11 5 6 4 2 1 1 2 3 2 5 5 3 19 8 7 12 12 23
43 42 41 41 42 41 38 36 36 36 37 35 34 31 31 32 32 32 27 25 27 25 34 27 27 23 21 17 16 7 7 5 5 5 2 2 1 1 12 7 4 4 5 9 9 11 20
45 44 42 41 40 39 39 39 37 36 36 35 34 32 30 30 32 30 26 27 22 26 34 37 25 23 18 18 18 10 11 10 7 7 5 3 9 7 10 5 5 7 4 15 14 23 11
46 45 43 41 41 40 38 37 36 35 35 33 32 32 28 27 29 27 27 25 22 21 34 37 25 26 21 18 23 14 14 12 8 10 8 7 6 8 7 4 6 5 6 9 17 6 13
43 42 41 39 38 37 36 35 34 34 32 32 31 30 26 23 29 23 21 16 15 18 38 22 17 18 15 19 16 16 15 16 15 10 10 7 8 8 5 1 6 6 9 5 6 21 27
41 40 39 37 36 35 33 32 31 29 29 29 28 26 27 27 29 28 26 16 13 26 38 24 17 18 18 19 20 14 20 18 13 13 11 10 7 5 2 2 4 5 7 4 3 3 22
40 39 38 36 34 33 31 30 29 28 27 26 25 24 24 27 29 25 26 20 30 37 24 28 22 16 17 18 18 16 19 22 17 16 15 11 10 5 7 4 3 8 6 4 4 3 10
44 40 36 33 31 30 28 27 26 25 25 25 25 25 27 30 32 27 24 27 41 38 34 20 20 18 21 16 18 16 17 21 22 16 13 12 13 9 4 3 5 7 10 3 4 3 9
34 31 29 28 26 25 25 25 23 22 22 21 22 25 27 30 30 30 29 43 48 37 27 35 22 24 23 18 17 18 21 22 23 20 16 13 13 7 9 3 4 1 10 10 4 5 16
30 30 30 31 33 31 29 27 26 24 22 20 21 26 28 26 23 32 37 45 51 42 39 28 35 23 25 21 19 20 21 21 22 23 19 17 15 11 8 8 4 6 5 5 5 4 3
36 40 35 33 33 32 31 29 27 26 24 22 24 29 26 21 22 32 48 49 45 42 36 36 35 32 25 22 23 22 21 22 22 21 23 21 18 13 11 11 7 5 3 4 1 5 9
45 41 45 39 36 34 32 31 29 28 26 25 26 36 19 23 29 29 43 44 48 41 44 37 36 35 34 29 25 27 23 23 22 20 23 24 20 16 16 13 9 6 7 8 7 3 6
40 39 40 39 38 34 35 33 32 32 32 28 32 29 21 27 38 36 33 40 56 52 44 42 37 37 29 28 26 27 25 24 16 23 22 22 26 21 17 13 11 11 7 5 11 5 6
40 37 37 36 36 36 37 38 38 35 36 33 30 35 27 33 39 36 35 39 46 53 51 48 41 44 39 31 29 23 26 24 22 22 26 26 26 27 21 20 15 14 12 8 8 9 7
40 40 39 39 38 39 38 39 39 40 41 38 36 36 35 40 41 42 38 37 40 54 57 50 50 47 44 39 36 32 29 24 22 24 24 24 27 27 28 26 22 15 12 10 13 12 10
43 42 39 40 37 36 35 36 38 43 43 43 40 35 35 35 41 43 43 46 39 39 50 58 55 48 43 43 36 33 29 24 23 24 27 22 27 31 31 27 28 29 21 12 9 11 13
44 41 39 37 36 37 37 37 40 43 45 40 39 41 31 42 41 47 47 42 43 36 54 58 55 43 43 41 24 19 18 19 20 21 25 26 27 25 30 27 26 29 18 15 13 11 9
40 36 37 41 42 44 42 42 42 44 49 38 40 35 37 40 44 47 49 54 47 37 51 55 52 51 39 31 28 25 29 27 29 26 26 26 26 31 27 27 31 23 19 12 12 13 8
34 37 37 39 42 38 42 45 44 47 49 40 41 41 40 43 43 49 48 50 50 51 49 50 48 46 35 30 37 33 27 31 32 37 33 29 29 29 29 30 30 23 19 15 17 15 8
29 28 25 24 27 35 41 57 47 50 46 42 42 41 41 43 46 48 45 46 45 42 48 48 44 26 26 34 37 44 40 35 35 32 41 34 31 30 26 33 30 25 25 18 20 21 19
22 13 5 16 46 57 59 47 45 46 46 43 42 41 39 43 41 36 41 43 38 35 43 48 37 31 30 38 43 45 44 34 36 33 31 30 31 36 32 32 31 22 24 16 15 21 23
12 18 18 37 39 41 41 42 40 42 44 42 40 44 43 33 32 29 29 34 33 38 46 42 44 34 32 40 42 39 41 38 38 34 29 29 31 33 33 36 36 19 14 15 19 31 19
17 7 11 14 23 32 37 36 37 38 41 39 43 46 42 27 24 26 24 21 24 34 41 40 37 36 32 36 38 37 39 33 37 39 32 31 29 30 30 32 30 21 27 27 30 30 21
Wind_Direction
294 297 298 296 296 297 298 299 299 300 301 303 305 305 300 300 299 300 301 303 304 304 308 311 311 310 319 331 332 357 4 38 57 69 63 66 52 58 39 59 68 79 138 19 244 315 238
297 293 293 295 297 294 295 296 297 298 298 300 303 305 305 304 301 300 299 300 301 301 303 308 311 311 320 325 334 347 13 54 56 79 70 76 49 55 45 65 84 359 143 200 131 126 136
296 295 294 291 291 295 294 293 294 295 297 298 299 301 303 304 304 302 301 300 299 296 299 302 314 320 318 277 324 336 18 69 52 92 57 75 53 76 47 66 102 144 187 157 135 174 174
297 296 295 293 292 289 291 294 290 292 294 295 296 298 298 301 301 301 299 298 299 300 298 302 314 317 310 323 333 330 343 8 29 79 41 51 67 77 72 43 113 166 195 191 279 153 24
295 294 294 294 294 293 290 289 292 290 291 292 293 294 297 297 300 298 297 296 296 297 302 307 313 312 303 325 315 240 231 333 34 65 65 36 76 82 66 81 128 134 183 72 1 316 317
294 293 293 292 292 292 292 290 286 289 289 289 291 292 293 296 296 297 296 294 300 302 303 300 300 307 298 310 320 267 180 321 360 53 17 21 51 41 67 109 101 70 122 133 154 302 345
295 294 292 291 291 290 290 290 290 285 286 287 288 291 291 293 297 297 299 300 302 303 289 287 307 289 311 312 316 298 175 171 291 283 217 99 25 40 37 61 127 329 185 145 340 341 272
294 293 291 290 289 289 289 288 289 289 284 285 285 286 289 289 291 295 296 293 298 302 292 287 283 280 287 305 295 272 168 196 217 248 222 328 292 56 5 34 83 78 137 153 359 339 291
293 292 290 288 287 287 285 285 285 286 287 281 282 282 286 288 288 287 284 287 306 303 289 285 276 266 266 264 279 261 190 190 207 241 221 227 345 17 8 57 78 129 126 327 288 294 318
292 291 289 287 285 284 284 283 281 281 283 284 279 278 279 286 285 280 281 289 296 302 289 282 282 278 250 255 267 223 202 200 225 241 251 271 298 344 3 41 104 127 132 351 315 345 312
292 290 289 287 285 283 281 280 279 278 279 281 278 274 271 269 284 277 296 289 295 298 279 296 267 293 266 237 283 226 203 207 213 244 259 252 296 311 321 101 109 81 30 29 350 301 277
291 289 288 286 284 281 279 278 275 275 275 278 279 272 267 266 267 268 287 288 276 274 271 283 282 278 268 248 256 276 205 206 229 250 258 260 302 316 336 101 98 87 43 55 29 4 300
290 288 286 284 281 279 276 273 273 269 269 271 275 269 263 262 259 262 273 269 261 256 275 271 278 272 264 260 241 245 200 202 211 214 231 245 266 277 330 353 89 148 125 105 117 157 318
287 285 283 281 279 274 269 266 264 264 263 263 267 267 262 259 254 257 264 252 251 256 249 286 274 269 264 258 238 229 218 211 207 224 241 228 224 231 285 236 350 166 164 93 58 101 331
283 275 266 265 262 261 259 256 252 251 254 256 261 262 259 256 251 246 249 244 242 248 257 253 278 267 263 258 255 237 225 217 206 204 238 234 240 257 237 235 195 168 187 178 223 344 312
258 263 263 263 268 266 261 256 251 245 242 241 252 259 252 250 249 243 243 248 248 252 259 265 254 262 259 255 249 236 231 223 217 212 238 270 259 264 264 280 236 286 172 196 185 345 299
281 281 274 266 262 259 256 252 245 238 234 233 247 260 259 235 244 242 242 241 250 247 258 252 253 258 262 257 248 253 251 260 225 215 242 254 263 258 270 262 250 244 262 190 246 216 325
288 282 281 273 265 255 252 249 243 233 225 222 243 251 251 211 234 247 240 231 238 246 251 256 255 260 255 261 254 255 245 244 255 233 228 243 262 257 262 263 248 243 202 196 250 263 295
287 281 278 274 267 260 253 248 241 229 215 221 243 248 238 213 237 239 237 221 240 238 243 247 249 252 251 256 259 253 256 254 256 235 228 233 250 255 261 264 273 268 256 211 196 223 243
284 280 276 272 265 259 254 248 237 225 211 218 236 238 243 228 237 237 231 222 232 238 238 242 246 245 248 250 253 267 247 257 247 255 243 240 247 248 249 258 268 259 269 242 243 270 243
285 280 276 270 264 257 252 246 233 222 211 214 230 240 232 227 230 229 232 245 227 235 235 236 240 245 243 247 250 252 253 254 252 249 254 247 240 251 256 265 271 259 251 229 225 219 249
286 281 275 270 261 250 240 241 228 220 210 222 232 235 228 240 233 235 240 237 230 224 232 231 232 241 242 242 247 248 248 248 250 252 245 243 252 251 256 261 267 273 278 267 248 232 231
288 280 274 265 254 248 233 233 210 205 206 225 232 230 229 234 231 233 236 234 209 215 233 231 232 236 241 241 262 244 258 250 250 258 246 250 249 251 254 261 265 266 271 271 271 230 257
288 278 272 266 260 253 231 221 213 207 203 226 223 222 233 235 231 232 236 236 238 226 232 232 233 236 238 256 257 266 258 257 251 258 260 256 252 250 256 262 261 276 279 270 242 223 235
290 281 273 265 262 246 218 216 212 209 198 218 221 224 230 232 232 233 234 235 237 234 232 234 233 236 245 249 248 248 251 249 246 248 258 257 255 252 253 258 270 274 276 278 288 285 260
306 288 246 244 246 235 217 217 212 205 196 216 219 222 227 229 231 229 234 234 232 234 229 232 235 232 238 236 239 240 241 246 247 250 253 252 253 251 255 257 258 270 271 283 287 287 291
321 325 217 238 231 215 215 208 205 197 198 211 218 219 225 230 229 234 235 232 233 230 228 226 224 228 232 234 236 238 243 251 246 241 249 243 247 247 253 260 266 275 269 268 268 282 295
208 230 190 217 219 210 189 192 191 192 196 204 215 214 217 228 237 239 245 233 229 230 224 223 223 234 231 233 235 237 243 245 247 246 246 247 248 250 255 257 260 273 269 263 285 276 292
6 284 101 124 194 186 183 182 185 182 193 205 212 214 217 236 241 238 253 248 239 237 225 227 227 226 235 236 238 241 240 249 245 246 248 247 252 256 258 265 268 269 267 274 276 283 291